RH
38 35 18 7 8 10 11 11 10 6 5 4 4 4 4 6 24 26 27 22 18 12 8 5 4 5 5 5 5 5 4 4 4 4 4 4 4 4 5 10 8 12 39
38 34 25 6 8 10 11 10 8 6 4 4 4 4 4 3 3 5 7 8 7 5 4 4 5 6 5 5 4 4 4 4 4 5 4 4 4 3 4 4 6 8 16
33 32 26 8 7 10 11 9 7 6 5 5 4 4 4 4 4 3 3 3 3 3 4 5 6 6 5 4 4 4 4 4 4 4 4 4 4 3 4 4 6 8 10
34 33 28 14 6 10 11 8 8 7 6 5 5 5 4 4 4 4 3 3 3 3 4 5 6 6 4 4 3 3 4 4 4 4 4 4 3 4 4 5 5 6 12
36 34 32 18 8 8 11 8 8 8 7 5 5 4 4 4 4 3 3 3 3 4 5 6 6 5 4 3 3 3 3 4 3 3 3 3 4 5 5 5 6 6 6
38 37 35 29 11 8 11 8 9 10 9 7 4 4 4 4 4 3 3 3 4 4 5 6 5 5 4 3 2 2 2 3 3 3 3 3 5 5 5 5 6 6 6
38 38 37 33 21 8 10 9 10 10 10 10 9 6 4 4 4 3 3 4 4 4 5 6 6 5 5 4 3 2 2 2 2 3 4 6 5 5 6 6 6 6 6
36 38 40 38 28 11 10 10 10 11 12 12 12 11 8 6 4 4 4 4 4 5 5 6 6 5 5 5 4 3 3 3 4 6 6 5 5 6 7 7 7 7 7
35 32 37 40 34 19 10 11 10 11 12 13 12 12 11 9 7 5 5 5 5 5 6 6 6 6 6 5 5 5 5 5 5 5 5 6 6 7 7 7 8 8 7
8 26 34 36 40 32 13 11 10 11 12 13 14 13 12 10 8 7 6 5 5 5 6 6 7 6 6 6 5 5 5 5 5 5 6 6 7 7 7 7 7 7 7
4 6 13 29 36 41 29 12 11 12 12 13 12 12 13 11 9 8 6 5 6 6 6 6 7 7 6 6 6 6 6 6 6 6 6 6 7 7 7 8 8 8 8
6 4 5 13 26 37 42 22 12 11 12 11 12 10 8 10 8 6 5 5 6 6 6 6 7 7 7 7 6 7 7 7 7 7 7 7 7 8 8 8 9 10 10
6 6 7 20 25 45 39 41 15 12 11 12 13 12 8 6 6 5 5 6 7 6 6 6 7 7 8 7 7 7 7 7 8 7 7 7 8 8 9 9 10 10 10
5 5 9 50 59 66 46 48 31 14 13 12 14 13 10 6 5 6 6 7 7 8 7 7 7 8 8 8 7 7 8 8 8 8 8 8 9 9 9 10 11 11 10
6 6 19 65 57 77 87 60 62 26 16 14 14 14 10 8 6 7 7 7 7 8 8 8 8 8 8 8 7 8 8 8 8 9 8 9 9 9 9 10 10 11 11
6 6 7 32 58 77 67 75 76 70 26 19 14 15 12 9 7 7 7 8 8 8 8 9 8 9 9 8 7 8 8 8 9 9 9 9 9 8 9 10 10 10 10
7 7 7 12 39 53 56 70 86 94 71 28 20 14 15 11 8 8 8 9 9 8 8 9 10 9 9 9 9 8 9 9 9 9 9 9 8 7 9 10 10 10 10
10 8 8 8 18 44 59 98 85 98 81 71 28 19 15 13 10 9 9 9 11 10 10 9 10 11 9 10 9 9 8 8 8 9 9 8 8 8 8 10 10 10 10
11 9 7 7 13 27 63 56 74 100 95 82 68 28 16 15 12 10 10 10 10 11 11 10 10 11 11 10 11 11 10 9 9 10 9 9 9 9 9 9 9 11 10
12 12 7 9 11 17 34 42 64 89 100 91 99 59 23 15 14 12 12 11 10 10 11 11 10 11 11 10 11 11 10 11 10 11 10 9 8 9 8 8 10 10 11
12 13 9 10 13 13 26 41 38 57 57 89 100 87 45 18 15 13 13 13 12 10 10 11 12 11 11 10 10 11 12 11 12 12 11 11 14 11 9 10 9 10 11
9 14 16 10 18 27 37 42 38 36 63 92 97 100 71 27 16 15 14 14 14 13 10 10 10 11 11 11 11 11 11 12 10 11 12 10 11 11 10 10 10 10 13
10 11 15 15 15 47 55 57 56 48 51 55 88 80 97 52 20 16 15 14 16 16 13 11 10 11 12 12 11 11 10 11 12 11 12 12 10 10 10 9 10 10 14
13 11 14 18 15 41 57 71 78 88 82 50 41 69 88 75 39 18 15 15 16 17 16 15 12 12 13 12 13 12 12 13 14 13 12 11 12 11 11 11 11 10 10
16 14 15 21 21 34 42 51 79 90 95 96 79 80 49 73 80 22 16 16 17 18 18 17 16 14 13 13 13 13 12 12 13 13 14 14 14 14 14 13 13 13 12
22 21 15 23 22 28 34 37 61 81 84 97 94 69 73 70 74 27 18 17 17 18 18 18 18 17 16 16 15 14 14 14 15 15 16 16 16 16 16 15 15 15 15
Wind_Speed
4 3 4 8 8 8 9 10 10 10 10 10 9 10 11 11 11 10 10 8 6 4 2 3 2 3 4 4 5 6 7 8 10 13 14 13 12 11 11 11 10 9 10
6 8 6 8 8 7 8 10 11 12 11 11 11 10 11 11 11 10 8 7 5 4 2 2 2 3 3 4 6 7 8 9 10 12 11 12 11 10 10 9 9 9 9
10 9 7 9 9 8 8 9 10 12 12 12 12 11 11 11 11 10 8 6 5 4 3 3 4 3 4 4 5 6 8 9 9 10 10 10 8 8 8 8 8 8 7
11 8 7 9 9 7 9 10 9 10 12 13 14 13 12 11 10 10 8 7 5 4 4 4 4 3 3 4 4 6 8 9 9 9 9 8 7 7 7 7 7 7 7
13 9 7 8 10 9 9 10 11 10 10 11 12 12 12 12 11 10 9 7 6 5 4 5 5 4 5 5 6 7 9 10 10 10 8 7 6 7 7 7 6 6 7
14 11 9 9 10 10 11 12 12 12 12 11 11 11 11 11 11 11 10 9 8 7 5 6 5 6 6 7 9 10 10 10 10 9 8 7 7 6 6 7 7 8 7
19 17 12 11 11 12 12 13 13 13 13 12 11 11 11 11 11 11 11 10 8 8 7 7 6 7 8 8 9 10 11 10 9 10 8 8 7 7 7 8 9 8 9
23 20 15 14 13 13 14 14 13 13 14 15 14 12 12 11 11 11 11 11 10 9 8 9 8 8 8 9 10 9 10 9 10 11 10 9 9 9 10 10 10 9 9
26 26 19 17 15 16 16 16 15 14 15 15 16 15 14 13 12 12 12 11 11 10 10 10 9 9 9 9 9 10 10 11 10 10 11 11 11 11 11 10 10 9 9
29 31 24 22 19 19 19 18 18 17 16 16 16 16 17 17 16 15 13 12 12 11 11 10 10 10 10 10 10 10 9 9 10 11 12 11 12 11 10 11 8 9 9
28 32 29 28 25 22 21 21 21 20 19 18 17 17 18 18 19 18 17 15 13 13 12 12 12 11 11 10 10 10 9 9 10 10 10 11 11 10 10 8 8 8 8
22 28 28 30 30 29 25 25 24 23 21 19 18 18 19 20 20 19 20 18 16 15 13 14 13 13 12 11 10 10 10 10 11 11 10 10 10 9 8 7 7 9 7
20 22 24 27 30 30 30 28 27 26 25 22 20 19 20 21 20 19 20 20 19 17 16 15 14 14 13 12 12 12 10 10 12 11 9 8 8 7 7 6 6 6 6
20 22 21 25 27 27 31 31 29 29 28 25 23 23 23 22 22 22 21 20 19 20 18 17 15 15 14 14 14 12 12 12 12 11 10 8 8 7 6 6 5 5 4
17 19 21 23 28 26 31 30 30 29 30 29 25 25 25 22 23 24 23 23 21 21 21 20 18 17 16 16 15 14 13 12 11 11 10 9 8 7 6 5 5 3 2
18 19 20 23 29 36 35 33 30 30 31 31 28 28 25 24 26 25 25 24 24 23 22 22 21 20 19 19 16 16 14 13 12 11 9 9 9 7 7 6 4 3 1
18 20 22 26 29 35 37 37 33 32 31 32 33 31 28 26 26 26 26 25 24 23 23 23 22 22 23 21 19 17 17 16 15 12 11 9 8 7 7 7 6 4 3
20 21 23 26 31 35 38 30 34 35 34 30 34 32 30 27 27 27 26 26 25 24 24 23 23 24 23 22 20 20 19 18 17 15 13 11 9 6 7 6 5 5 5
20 22 23 24 29 32 37 39 37 34 31 37 31 33 31 29 27 27 27 27 27 25 25 25 24 23 23 23 22 21 20 18 17 15 14 12 10 8 8 8 7 8 7
23 22 23 23 29 31 33 34 39 36 36 38 30 28 33 32 29 28 28 28 28 28 27 26 26 25 24 23 23 23 21 18 18 16 15 14 10 8 8 9 10 9 9
24 23 24 22 27 31 35 37 35 39 41 41 37 35 34 35 35 32 30 28 28 28 28 27 26 26 27 26 24 24 23 21 19 18 17 17 17 16 14 11 10 11 10
29 23 25 21 24 28 31 33 37 35 42 33 36 36 38 37 36 34 32 29 28 29 29 29 27 27 27 25 25 25 24 23 22 22 21 20 19 17 14 13 13 14 12
31 28 25 25 22 24 26 24 27 32 39 41 45 51 36 38 36 37 36 33 31 31 29 29 29 28 25 25 25 25 26 25 22 22 22 19 18 17 17 16 16 15 13
31 31 24 26 26 26 26 26 26 28 35 40 44 49 45 49 38 40 38 36 34 33 32 30 29 28 27 27 26 24 24 22 22 21 21 19 19 17 17 18 18 18 16
27 28 21 27 27 27 28 28 30 28 29 32 40 47 52 53 46 45 42 39 37 35 34 31 30 30 28 28 26 25 24 24 24 23 21 21 20 19 19 20 22 21 19
26 27 24 27 27 27 29 29 32 33 32 36 34 42 52 56 57 49 45 40 40 37 35 33 32 31 30 29 28 28 27 27 24 24 25 24 22 22 21 23 21 21 21
Wind_Direction
186 185 207 173 175 173 168 162 160 158 162 159 164 159 159 161 163 169 173 172 171 164 170 97 78 87 108 108 104 95 99 101 104 110 105 93 85 79 74 72 69 69 77
203 193 200 188 182 182 182 172 168 162 162 159 160 161 159 160 165 173 182 182 174 169 147 118 102 87 98 107 114 112 109 109 114 116 107 95 82 73 73 79 81 76 77
178 186 181 190 188 183 181 185 178 168 164 161 161 163 161 161 164 167 173 181 177 163 140 121 93 80 72 72 83 105 121 125 124 127 117 101 95 92 94 88 86 86 92
190 192 185 187 190 188 187 182 189 180 172 168 167 168 168 169 171 168 173 170 173 160 153 123 106 99 100 99 112 133 137 138 140 144 135 122 108 103 100 96 98 103 99
201 201 198 199 193 189 190 188 187 189 185 176 172 172 174 175 176 173 174 173 168 170 156 138 137 129 114 121 133 144 153 156 157 153 151 128 110 106 102 103 108 105 109
221 210 216 210 203 197 198 190 190 192 190 183 177 177 176 179 178 175 176 175 174 172 171 159 152 141 135 139 144 150 157 157 158 148 130 119 113 102 98 101 109 111 109
236 224 228 223 210 204 202 199 197 193 195 192 184 179 181 182 183 181 177 178 179 178 176 169 164 155 143 143 148 150 150 151 143 120 121 117 115 117 113 111 108 111 105
237 234 231 228 219 211 207 205 204 203 197 196 196 189 185 186 185 183 182 181 181 185 183 175 167 159 151 147 144 143 139 136 126 134 131 125 124 122 114 110 107 103 106
236 235 234 231 228 219 212 210 209 208 205 203 201 198 197 193 192 190 188 187 188 187 186 181 174 165 158 149 144 143 144 140 141 130 128 129 125 117 111 106 105 105 98
240 239 230 235 233 230 220 215 214 211 209 209 210 206 203 198 195 193 193 193 194 191 189 184 180 172 167 159 157 156 143 133 135 139 134 132 125 118 112 103 107 97 88
239 241 233 233 232 233 230 224 221 217 215 213 212 210 210 205 200 195 193 192 193 196 191 189 187 182 175 169 166 150 145 148 138 143 139 138 131 130 116 118 107 92 90
237 242 237 234 233 230 231 228 224 223 223 221 216 214 214 211 208 200 194 190 191 195 198 197 193 187 183 177 170 161 161 156 150 150 149 148 138 133 124 115 98 87 79
240 244 237 233 234 230 231 231 228 225 225 224 222 220 219 215 212 206 204 196 189 194 198 201 199 193 189 187 179 177 169 168 157 156 157 157 147 144 137 121 109 101 96
235 240 235 221 230 231 235 233 229 227 226 226 224 224 224 219 211 208 207 209 200 190 194 199 200 196 196 198 195 175 179 177 171 169 169 169 162 158 146 134 126 126 114
242 236 233 219 229 228 227 238 235 232 230 226 224 227 227 222 218 212 207 206 206 202 194 196 197 199 202 205 202 188 189 186 182 183 183 177 176 178 157 160 160 133 121
243 239 238 225 223 225 236 235 241 238 231 232 228 227 227 225 222 216 213 210 207 206 205 197 196 199 202 206 202 197 193 193 193 196 195 185 189 188 178 182 175 178 211
244 239 231 229 222 230 232 235 238 239 235 231 227 230 226 226 226 223 218 213 212 209 209 208 200 201 204 204 205 198 198 198 199 198 203 200 210 198 184 186 196 212 237
259 247 238 231 227 225 236 235 236 244 240 233 233 230 230 227 228 226 224 223 213 210 212 213 213 206 207 206 207 207 203 203 201 200 208 209 214 200 196 198 221 255 267
262 256 250 238 230 229 229 237 234 238 250 245 235 231 230 229 229 231 228 227 226 214 213 215 214 214 216 212 206 213 208 214 206 203 213 219 220 205 216 226 244 254 272
260 259 258 237 231 231 232 233 234 236 243 247 234 230 230 229 228 228 230 231 229 227 217 215 216 217 215 217 216 213 215 210 219 209 213 226 224 232 240 248 251 265 277
247 257 264 249 235 230 229 231 230 236 240 242 253 240 230 229 225 223 224 230 234 230 229 222 218 220 222 218 217 219 218 211 217 219 217 216 224 230 234 248 260 268 271
257 255 259 255 238 235 236 237 236 237 230 244 235 232 233 229 228 225 222 223 230 234 231 228 224 221 225 222 225 222 223 223 218 224 223 226 229 236 242 248 258 267 278
256 259 256 257 241 234 232 229 229 231 233 234 236 236 233 236 229 228 223 220 223 229 231 233 229 227 227 229 228 229 231 230 229 229 232 234 243 247 252 255 257 258 266
255 260 249 242 243 239 236 233 234 245 246 240 240 238 238 238 231 230 226 221 222 226 226 230 230 229 227 228 231 231 235 239 240 240 244 244 245 249 258 262 267 270 271
244 251 239 234 235 238 246 248 244 246 248 250 243 238 237 233 233 229 225 224 222 225 227 227 229 230 228 230 231 233 236 237 240 244 243 247 248 249 254 260 264 271 275
232 241 243 230 232 236 245 250 246 251 254 258 254 235 230 233 238 224 224 224 225 224 226 227 229 229 229 231 231 234 237 238 240 244 245 246 249 253 254 259 264 269 274